TimeCST,TemperatureF,Dew PointF,Humidity,Sea Level PressureIn,VisibilityMPH,Wind Direction,Wind SpeedMPH,Gust SpeedMPH,PrecipitationIn,Events,Conditions,WindDirDegrees,DateUTC
12:53 AM,30.0,26.1,85,29.62,10.0,WNW,21.9,25.3,N/A,,Overcast,290,2012-11-11 06:53:00
1:53 AM,28.0,24.1,85,29.64,10.0,WNW,18.4,-,N/A,,Overcast,290,2012-11-11 07:53:00
2:44 AM,28.4,21.2,74,29.62,10.0,WNW,19.6,-,N/A,,Overcast,300,2012-11-11 08:44:00
2:53 AM,28.0,21.9,78,29.66,10.0,WNW,18.4,-,N/A,,Overcast,300,2012-11-11 08:53:00
3:53 AM,26.1,21.0,81,29.70,10.0,WNW,20.7,-,N/A,,Overcast,290,2012-11-11 09:53:00
4:47 AM,24.8,19.4,80,29.70,1.8,West,19.6,25.3,0.00,Snow,Light Snow,280,2012-11-11 10:47:00
4:53 AM,25.0,19.9,81,29.73,1.5,West,19.6,26.5,0.00,Snow,Light Snow,280,2012-11-11 10:53:00
5:09 AM,24.8,19.4,80,29.71,0.8,West,20.7,-,0.00,Snow,Light Snow,280,2012-11-11 11:09:00
5:27 AM,24.8,19.4,80,29.71,0.2,West,23.0,28.8,0.01,Fog-Snow,Heavy Snow,280,2012-11-11 11:27:00
5:46 AM,24.8,19.4,80,29.72,0.5,West,23.0,29.9,0.03,Snow,Snow,280,2012-11-11 11:46:00
5:53 AM,24.1,19.0,81,29.76,0.8,West,19.6,29.9,0.03,Snow,Light Snow,280,2012-11-11 11:53:00
5:58 AM,24.8,19.4,80,29.72,1.2,West,19.6,-,0.00,Snow,Light Snow,280,2012-11-11 11:58:00
6:20 AM,23.0,19.4,86,29.73,0.8,West,18.4,-,0.00,Snow,Light Snow,280,2012-11-11 12:20:00
6:28 AM,23.0,19.4,86,29.73,1.2,West,21.9,26.5,0.01,Snow,Light Snow,280,2012-11-11 12:28:00
6:44 AM,23.0,17.6,80,29.74,2.0,West,19.6,26.5,0.01,Snow,Light Snow,280,2012-11-11 12:44:00
6:50 AM,23.0,17.6,80,29.74,3.0,West,16.1,-,0.01,Snow,Light Snow,280,2012-11-11 12:50:00
6:53 AM,23.0,18.0,81,29.78,3.0,West,17.3,-,0.01,Snow,Light Snow,280,2012-11-11 12:53:00
8:53 AM,21.9,15.1,75,29.81,10.0,West,17.3,-,N/A,,Clear,270,2012-11-11 14:53:00
9:42 AM,21.2,15.8,80,29.78,5.0,West,20.7,-,N/A,,Haze,270,2012-11-11 15:42:00
9:53 AM,21.0,14.0,74,29.82,10.0,West,15.0,-,N/A,,Mostly Cloudy,280,2012-11-11 15:53:00
10:53 AM,21.9,14.0,72,29.83,10.0,West,19.6,-,N/A,,Overcast,270,2012-11-11 16:53:00
11:53 AM,21.9,14.0,72,29.84,10.0,WSW,18.4,-,0.00,,Overcast,250,2012-11-11 17:53:00
12:53 PM,21.9,14.0,72,29.83,10.0,West,18.4,-,N/A,,Overcast,260,2012-11-11 18:53:00
1:53 PM,21.9,12.9,68,29.84,10.0,WSW,17.3,-,N/A,,Overcast,250,2012-11-11 19:53:00
2:53 PM,21.9,12.9,68,29.84,10.0,WSW,17.3,-,N/A,,Overcast,250,2012-11-11 20:53:00
3:53 PM,21.9,12.9,68,29.85,10.0,West,17.3,-,N/A,,Mostly Cloudy,260,2012-11-11 21:53:00
4:53 PM,21.9,12.9,68,29.86,10.0,West,18.4,-,N/A,,Overcast,260,2012-11-11 22:53:00
5:51 PM,21.2,10.4,63,29.82,10.0,West,18.4,-,0.00,,Overcast,270,2012-11-11 23:51:00
5:53 PM,21.9,12.0,66,29.87,10.0,West,17.3,-,0.00,,Overcast,270,2012-11-11 23:53:00
6:14 PM,21.2,10.4,63,29.83,10.0,West,18.4,-,N/A,,Overcast,270,2012-11-12 00:14:00
6:53 PM,21.0,12.0,68,29.88,10.0,West,15.0,-,N/A,,Overcast,260,2012-11-12 00:53:00
7:53 PM,21.0,12.0,68,29.87,9.0,West,19.6,-,0.00,Snow,Light Snow,270,2012-11-12 01:53:00
8:14 PM,21.2,12.2,68,29.83,10.0,West,17.3,-,0.00,,Overcast,270,2012-11-12 02:14:00
8:53 PM,19.9,12.0,71,29.88,10.0,West,13.8,-,0.00,,Overcast,270,2012-11-12 02:53:00
9:53 PM,19.9,12.0,71,29.89,7.0,West,15.0,-,0.00,Snow,Light Snow,270,2012-11-12 03:53:00
10:53 PM,19.0,12.9,77,29.89,9.0,West,12.7,-,0.00,Snow,Light Snow,260,2012-11-12 04:53:00
11:40 PM,19.4,14.0,80,29.84,4.0,West,15.0,-,0.00,Snow,Light Snow,270,2012-11-12 05:40:00
11:53 PM,19.9,14.0,78,29.90,4.0,West,13.8,-,0.00,Snow,Light Snow,270,2012-11-12 05:53:00